www.pogodaiklimat.ru

Погода и климат >> Архив погоды >> Россия >> Томская область >> Старица


ПОГОДА в Старице

  • Прогноз погоды в Старице
  • Монитор погоды в Старице

АРХИВ ПОГОДЫ в Старице

Время (UTC), дата Ветер
(напр.,м/с)
 
Видим.   Явления Облачность Т
(С)
Тd
(С)
f
(%)
Тe
(С)
Тes
(С)
Комфортность P
(гПа)
Po
(гПа)
Тmin
(С)
Tmax
(С)
R
(мм)
R24
(мм)
S
(см)
12 11.06 ЮЗ 3 20 км 4/3 600 м
[Cu hum Ci fib]
+22.9 +11.8 50 +25 +28 комфорт 1006.4 997.2 +23.9
15 11.06 штиль 0 20 км 4 балла +20.5 +13.7 65 +23 +23 комфорт 1005.3 996.0
18 11.06 Ю 2 20 км 10 баллов +19.9 +14.7 72 +23 +23 комфорт 1004.0 994.7
21 11.06 Ю 2 20 км 10 баллов +17.5 +15.5 88 +18 +18 1002.6 993.3
00 12.06 Ю 1 20 км {ливн. осадки} 10/10 330 м
[St]
+17.1 +16.1 94 +18 +18 1001.7 992.3 +16.7 1
03 12.06 ЮЗ 2 20 км 10 баллов +18.4 +15.8 85 +20 +20 1002.6 993.3
06 12.06 Ю 3 20 км 9 баллов +21.5 +15.8 70 +25 +26 комфорт 1001.2 992.0
09 12.06 Ю 2 20 км 10 баллов +24.3 +16.0 60 +28 +28 душно 999.8 990.7
12 12.06 С 1 10 км гроза, ливневой дождь 10/8 600 м
[Cb cap Ac und]
+17.1 +15.9 93 +18 +18 998.2 988.8 +24.6 2
15 12.06 В 1 20 км в посл. час гроза 10 баллов +16.4 +15.3 93 +17 +17 997.3 988.0
18 12.06 ЮЗ 1 20 км в посл. час гроза 10 баллов +14.9 +13.9 94 +15 +15 997.4 988.0
21 12.06 Ю 1 н/о н/о +13.5 +12.6 94 +14 997.4 988.0
00 13.06 Ю 2 20 км 6/0
[Ac trans]
+13.7 +12.4 92 +13 +14 995.6 986.2 +12.7 3
03 13.06 ЮЗ 2 20 км 10 баллов +18.0 +13.3 74 +19 +19 994.5 985.3
06 13.06 ЮЗ 4 20 км 10 баллов +21.3 +14.2 64 +24 +24 комфорт 994.4 985.3
09 13.06 ЮЗ 3 10 км слаб. ливневой дождь, в посл. час гроза 10 баллов +15.6 +13.4 87 +15 +15 994.6 985.3
12 13.06 ЮЗ 4 20 км {гроза, ливн. осадки} 9/9 600 м
[Sc]
+15.7 +7.4 58 +15 +15 995.3 985.9 +21.4 2
15 13.06 ЮЗ 2 20 км 10 баллов +13.0 +8.7 75 +12 +12 997.4 988.0
18 13.06 З 2 20 км 10 баллов +9.2 +3.6 68 +8 +8 1000.3 990.7
21 13.06 З 1 20 км ясно +4.0 +3.1 94 +2 +2 1000.5 990.7
00 14.06 З 2 20 км ясно +6.4 +4.3 86 +4 +6 1001.2 991.5 +3.1
03 14.06 ЮЗ 3 20 км 4 балла +10.4 +2.5 58 +9 +13 1002.9 993.3
06 14.06 Ю 3 20 км 9 баллов +11.7 +4.2 60 +10 +11 1002.8 993.3
09 14.06 СЗ 1 20 км в посл. час ливневой дождь 9 баллов +9.8 +5.6 75 +9 +11 1004.3 994.7
12 14.06 ЮЗ 2 20 км {ливн. осадки} 8/3 600 м
[Cb cap Ac trans]
+10.1 +5.5 73 +9 +10 1004.5 994.8 +12.7 3
15 14.06 ЮЗ 1 20 км 10/0
[Ac und]
+8.6 +5.5 81 +8 +8 1005.7 996.0
18 14.06 ЮЗ 2 20 км 10 баллов +6.8 +4.6 86 +5 +5 1005.7 996.0
21 14.06 ЮЗ 1 20 км ясно +3.2 +2.0 92 +2 +2 1007.2 997.3
00 15.06 З 2 20 км ясно +4.3 +3.5 95 +1 +3 1007.7 997.8 +2.1 0.0
03 15.06 СЗ 1 20 км 6/6 600 м
[Cu hum]
+9.4 +2.5 62 +9 +13 1009.7 1000.0
06 15.06 З 2 20 км 5 баллов +12.5 +1.2 46 +12 +19 1009.6 1000.0
09 15.06 ЮЗ 1 20 км 7 баллов +14.6 -0.7 35 +15 +20 1009.5 1000.0
12 15.06 З 1 20 км 10/4 600 м
[Sc Ci fib]
+13.6 +0.3 40 +14 +16 1008.4 998.8 +15.1
15 15.06 штиль 0 20 км 10 баллов +9.8 +5.4 74 +9 +9 1009.7 1000.0
18 15.06 штиль 0 20 км 10 баллов +7.6 +5.7 88 +7 +7 1009.8 1000.0
21 15.06 штиль 0 20 км 10 баллов +7.4 +5.5 88 +6 +6 1008.4 998.7
00 16.06 штиль 0 20 км 10/0
[Ac und]
+7.6 +6.2 91 +7 +7 1006.4 996.6 +7.0
03 16.06 С 1 20 км 10 баллов +10.9 +6.3 73 +11 +11 1006.9 997.3
06 16.06 СЗ 1 20 км 9 баллов +15.6 +4.0 46 +16 +18 1005.4 996.0
09 16.06 С 1 20 км 10 баллов +15.9 +3.3 43 +17 +17 1004.1 994.7
12 16.06 штиль 0 20 км 10/0
[Ac und]
+13.5 +6.9 64 +13 +15 1003.2 993.7 +16.5
15 16.06 З 1 10 км слаб. ливневой дождь 10 баллов +10.2 +8.6 90 +10 +10 1005.6 996.0
18 16.06 штиль 0 20 км в посл. час ливневой дождь 10 баллов +9.4 +8.5 94 +9 +9 1005.6 996.0
21 16.06 штиль 0 20 км 10 баллов +6.7 +6.1 96 +6 +6 1005.7 996.0
00 17.06 Ю 1 20 км 10/0
[Ac trans Ci fib]
+8.9 +7.9 93 +8 +9 1005.0 995.3 +6.4 0.9
03 17.06 Ю 2 20 км 7 баллов +13.8 +8.8 72 +13 +16 1005.5 996.0
06 17.06 ЮЗ 3 20 км 7 баллов +17.6 +6.8 49 +18 +21 1005.4 996.0
09 17.06 Ю 3 20 км 2 балла +18.7 +6.8 46 +19 +27 1004.0 994.7
12 17.06 Ю 2 20 км 9/1 600 м
[Cu med, cong Ac trans Ci fib]
+18.9 +8.0 49 +20 +22 1003.3 993.9 +19.7 0.4
15 17.06 В 1 20 км 7 баллов +16.3 +9.2 63 +17 +17 1004.1 994.7
18 17.06 штиль 0
{10}
20 км {дождь} 8/8 600 м
[Sc]
+9.9 +9.1 95 +9 +9 1004.4 994.7
21 17.06 ЮВ 1 20 км 10 баллов +9.6 +8.7 94 +9 +9 1004.3 994.7
00 18.06 штиль 0 20 км {дождь} 10/0
[Ac und]
+10.7 +9.6 93 +10 +11 1003.9 994.3 +9.0 1
03 18.06 В 1 20 км 10 баллов +15.9 +10.2 69 +17 +17 1004.1 994.7
06 18.06 В 1 20 км 10 баллов +20.9 +8.8 46 +23 +23 комфорт 1001.2 992.0

 

Местоположение метеостанции Старица (Томская область, Россия): широта 58.15 долгота 80.58 высота над уровнем моря 80 м.

В архиве по умолчанию представлена погода в Старице за последнюю неделю. Архивные данные за месяц целиком и за предыдущие месяцы, начиная с января 2011 года, Вы можете получить, выбрав интересующий диапазон дат из раскрывающегося списка и нажав кнопку "Ввод!".


*Определитесь, кто Вы:
робот инопланетянин человек

Внимание! Время в таблицах - всемирное. Для получения местного времени необходимо прибавить поправку, которая равна 7 ч.

Смотрите также архив погоды в соседних городах и на ближайших метеорологических станциях:

Погода в Парабели (Томская область, Россия) (81 км)
Погода в Пудино (Томская область, Россия) (94 км)
Погода в Каргасоке (Томская область, Россия) (104 км)
Погода в Подгорном (Томская область, Россия) (130 км)
Погода в Колпашево (Томская область, Россия) (140 км)
Погода в Бакчаре (Томская область, Россия) (156 км)
Погода в Прохоркино (Томская область, Россия) (165 км)
Погода в Березовке (Томская область, Россия) (176 км)
Погода в Среднем Васюгане (Томская область, Россия) (181 км)
Погода в Молчаново (Томская область, Россия) (199 км)

Пояснения к столбцам:

Ветер - указаны скорость ветра в м/с - средняя за 10 мин, порывы в срок и между сроками (в фигурных скобках) и направление, откуда дует ветер: С - северный, СВ - северо-восточный, В - восточный, ЮВ - юго-восточный, Ю - южный, ЮЗ - юго-западный, З - западный, СЗ - северо-западный.
Видимость - горизонтальная дальность видимости в метрах или километрах. При видимости от 1 до 10 км при отсутствии осадков обычно наблюдается дымка, при ухудшении видимости до 1 км и менее - туман. В сухую погоду видимость может ухудшаться дымом, пылью или мглою.
Явления - указаны атмосферные явления, наблюдавшиеся в срок или в последний час перед сроком; фигурными скобками обозначены явления, наблюдавшиеся между сроками (за 1-3 часа до срока); квадратными скобками обозначены град или гололедные отложения с указанием их диаметра в мм.
Облачность - указаны через наклонную черту общая и нижняя облачность в баллах и высота нижней границы облаков в метрах; квадратными скобками обозначены формы облаков: Ci - перистые, Cs - перисто-слоистые, Cc - перисто-кучевые, Ac - высококучевые, As - высокослоистые, Sc - слоисто-кучевые, Ns - слоисто-дождевые, Cu - кучевые, Cb - кучево-дождевые. Подробнее классификацию облаков см. в Атласе облаков (PDF).
T - Температура воздуха - температура, измеренная на высоте 2 м над землей.
Td - Температура точки росы - температура, при понижении до которой содержащийся в воздухе водяной пар достигнет насыщения.
f - Относительная влажность воздуха - влажноcть воздуха, измеренная на высоте 2 м над землей.
Te - Эффективная температура - температура, которую ощущает одетый по сезону человек в тени. Характеристика душности погоды. При расчете учитывается влияние влажности воздуха и скорости ветра на теплоощущения человека.
Tes - Эффективная температура на солнце - температура, которую ощущает человек, с поправкой на солнечный нагрев. Характеристика знойности погоды. Зависит от высоты солнца над горизонтом, облачности и скорости ветра. Ночью, в пасмурную погоду, а также при ветре 12 м/с и более поправка равна нулю.
P - Атмосферное давление - приведенное к уровню моря атмосферное давление.
Po - Атмосферное давление - измеренное на уровне метеостанции атмосферное давление.
Tmin - Минимальная температура - минимум температуры воздуха на высоте 2 м над землей.
Tmax - Максимальная температура - максимум температуры воздуха на высоте 2 м над землей.
R - Количество осадков - Количество выпавших осадков за период времени, мм. При наведении курсора мыши на число - период времени, за который выпало указанное количество осадков.
R24 - Количество осадков - Количество выпавших осадков за 24 часа, мм.
S - Снежный покров - Высота снежного покрова, см. При наведении курсора мыши на число - состояние снежного покрова и степень покрытия местности в баллах.